COSMOS 2251 DEB, 34546

Orbit data source: Space-Track

COSMOS 2251 DEB, 34546 is space debris in LEO originally from a launch on Wed, 16 Jun 1993 UTC launched from the Plesetsk Missile And Space Complex (PKMTR). The debris from Iridium 33, an American commercial communications satellite, has been tracked extensively since its accidental collision with the defunct Russian satellite Cosmos 2251 in 2009. This event, occurring at high speed in low Earth orbit (LEO), generated thousands of pieces of space debris, significantly increasing the risk of further collisions. The Iridium 33 debris cloud has impacted space traffic management and orbital debris mitigation strategies, making it a subject of ongoing study in space situational awareness.

Loading next visibility...
Identifier
34546, 1993-036UG
Orbit
LEO
Country
Flag of CISCIS
Related business
Manufacturer
Unknown
Mission
Spacecraft
Bus & Motor
Unknown
Mass
Unknown
Launch date (UTC)
1993-06-16 (33 years ago)
Launch vehicle
Unknown
Launch site
Plesetsk Missile And Space Complex (PKMTR)
Object type
Payload
Rocket body
Debris
Shape & HBR
Unknown shape, 0.1 m
Radar Cross Section
Small (<0.1 m²)

Expand to show TLE details & history
Last TLE update: 20 hours ago

TLE from 20 hours ago
0 COSMOS 2251 DEB
1 34546U 93036UG  26236.16262503  .00001123  00000-0  31945-3 0  9999
2 34546  74.0301 134.3640 0021284 153.2373 359.2433 14.46351921917036
Epoch: 2026-08-24T03:54Z
TLE epoch observation values (Epoch: 2026-08-24T03:54:10.802Z)
Latitude
26.41894°
Longitude
-84.75902°
Altitude
725.355 km
Speed
7.503 km/s
True Right ascension
20h 24m 56s
True Declination
26° 16' 54"
Sunlit
Object was in full shadow at epoch
Visualization orbit readout
Latitude
Unknown
Longitude
Unknown
Altitude
Unknown
Speed
Unknown
Apparent Right ascension
Unknown
Apparent Declination
Unknown
Sunlit
N/A
Visualization observer readout
Local Sidereal Time
15:18:44
Azimuth
Unknown
Elevation
Unknown
Doppler factor
Unknown
Orbital elements
Apogee altitude
750.342 km
Perigee altitude
720.062 km
Semi-major axis
7,113.339 km
Eccentricity
0.00213
Inclination
74.0301°
RAAN
134.364°
Arg. of periapsis
153.2373°
True anomaly
359.24007°
Mean anomaly
359.2433°
Eccentric anomaly
359.24169°
Mean motion
3.6177 °/min
Orbital period
99.51 mins
BSTAR
0.00031945
Loading maneuver chart data...
Computing Atmospheric mass density...

Documentation

Showing up to 5 results
|